Regional Weather Roundup
Issued by NWS Glasgow, MT

Home | Current Version | Previous Version | Text Only | Print | Product List | Glossary On
Versions: 1 2 3 4 5 6 7 8 9 10 11 12 13 14 15 16 17 18 19 20 21 22 23 24 25 26 27 28 29 30 31 32 33 34 35 36 37 38 39 40 41 42 43 44 45 46 47 48 49 50
000
ASUS45 KGGW 222215
RWRGGW
HOURLY REGIONAL WEATHER ROUNDUP FOR NORTHEAST MONTANA
NATIONAL WEATHER SERVICE GLASGOW MONTANA
300 PM MST WED NOV 22 2017

NOTE: "FAIR" INDICATES FEW OR NO CLOUDS BELOW 12,000 FEET WITH NO
SIGNIFICANT WEATHER AND/OR OBSTRUCTIONS TO VISISBILITY.

NORTHEAST MONTANA


CITY           SKY/WX    TMP DP  RH WIND       PRES   REMARKS
GLASGOW        CLOUDY    47  36  65 N9        29.93S
PLENTYWOOD       N/A     38  27  64 NW16G32     N/A
WOLF POINT     CLOUDY    52  37  56 CALM      29.94R
JORDAN           N/A     65  41  41 W18       29.96R
WINNETT          N/A     65  39  38 W21G35      N/A
SIDNEY         CLEAR     48  35  60 NW5       29.94R
GLENDIVE       CLOUDY    59  41  51 NW12      29.95R
MALTA            N/A     55  41  59 W10G21      N/A
SCOBEY           N/A     41  25  53 NW7       29.92R

FORT PECK REPORTS


CITY           SKY/WX    TMP DP  RH WIND       PRES   REMARKS
FORT PECK        N/A     55  39  54 NW5G13      N/A
THE PINES        N/A     60  38  43 NW7G17      N/A

SOUTHEAST MONTANA


CITY           SKY/WX    TMP DP  RH WIND       PRES   REMARKS
BILLINGS       CLOUDY    61  41  47 SW13      30.09R
MILES CITY     PTSUNNY   67  44  43 W23G31    29.98R
BAKER          CLOUDY    64  42  44 W16G25    29.96R
LIVINGSTON     CLOUDY    62  40  44 W16       30.16F

CENTRAL MONTANA


CITY           SKY/WX    TMP DP  RH WIND       PRES   REMARKS
HAVRE          CLOUDY    56  42  59 W13       29.95S
LEWISTOWN      CLOUDY    61  40  45 W16       30.05F
GREAT FALLS    CLOUDY    59  41  51 SW26G38   30.03F
CUT BANK       CLOUDY    55  43  63 W18       29.99F
HELENA         CLOUDY    61  42  49 W13G23    30.14F
BUTTE          CLOUDY    52  37  56 S6        30.26F
BOZEMAN        CLOUDY    46  36  68 VRB7      30.20F

WESTERN MONTANA


CITY           SKY/WX    TMP DP  RH WIND       PRES   REMARKS
MISSOULA       CLOUDY    45  42  89 CALM      30.20F
KALISPELL      NOT AVBL

NORTH DAKOTA


CITY           SKY/WX    TMP DP  RH WIND       PRES   REMARKS
WILLISTON      CLEAR     47  31  53 NW13      29.92R
DICKINSON      CLOUDY    58  37  45 NW23      29.88R
MINOT          CLEAR     39  25  57 NW13      29.88R
BISMARCK       CLEAR     62  39  42 NW21G30   29.85R

SOUTHERN SASKATCHEWAN


CITY           SKY/WX    TMP DP  RH WIND       PRES   REMARKS
REGINA         CLOUDY    21  18  86 NW9       29.94R
MOOSE JAW      MOCLDY    21  19  93 W7        29.96R
ESTEVAN        MOCLDY    28  21  74 NW13      29.93R
SWIFT CURRENT  CLEAR     28  21  74 NW6       29.90R




USA.gov is the U.S. government's official web portal to all federal, state and local government web resources and services.